[[{"header":{"parameterUnit":"m.s-1","parameterCategory":1,"la1":30.2991,"la2":30.254,"lo1":-89.0895,"lo2":-89.0444,"dy":0.0017,"dx":0.0017,"nx":28,"ny":28,"refTime":"2026-01-02T03:00:00:Z","depth":0,"parameterNumber":2,"parameterNumberName":"U-component_of_WINDS"},"data":[0,0,0,0,0,0,0,0,0,0,0,0,0,0,0,0,0,0,0,0,0,0,0,0,0,0,0,0,0,0,0,0,0,0,0,0,0,0,0,0,0,0,0,0,0,0,0,0,0,0,0,0,0,0,0,0,0,0,2.8887,2.8885,0,2.8743,2.8741,2.874,2.8641,2.864,2.8639,2.8639,2.8497,2.8494,2.8491,0,0,0,0,0,0,0,0,0,0,0,0,0,2.9082,2.9079,2.8887,2.8885,2.8883,2.8743,2.8741,2.8739,2.8641,2.864,2.8639,2.8638,2.8498,2.8494,2.849,0,0,0,0,0,0,0,0,0,0,0,0,0,2.8974,2.9078,2.8887,2.8817,2.8809,2.8744,2.8741,2.8739,2.8641,2.864,2.8639,2.8638,2.8499,2.8495,2.849,2.8484,0,0,2.8476,2.8474,0,0,0,0,0,0,0,0,2.8981,2.8967,2.8829,2.8822,2.8813,2.8708,2.8758,2.8653,2.8641,2.8705,2.8639,2.8637,2.8569,2.8558,2.8534,2.8477,2.8471,2.8475,2.8473,2.8471,2.8469,0,0,0,0,0,0,0,2.8988,2.8973,2.883,2.8827,2.8817,2.8795,2.8778,2.8738,2.8645,2.87,2.8692,2.8676,2.8564,2.8538,2.853,2.8469,2.8476,2.8471,2.8469,2.8467,2.8404,2.8405,0,0,0,0,0,0,2.9006,2.898,2.8835,2.8826,2.8896,2.8792,2.8774,2.8743,2.8645,2.8629,2.8677,2.8672,2.8547,2.8535,2.8524,2.8512,2.8471,2.8466,2.8464,2.8403,2.8404,2.8405,0,0,0,0,0,0,2.901,2.8994,2.884,2.8901,2.8879,2.879,2.8757,2.8741,2.8715,2.8628,2.8612,2.8668,2.8546,2.8531,2.8495,2.8506,2.8464,2.846,2.8401,2.8403,2.8404,2.8488,0,0,0,0,0,0,2.9016,2.8996,2.8991,2.8901,2.8876,2.8812,2.8757,2.8739,2.8707,2.8699,2.8615,2.86,2.8544,2.8502,2.849,2.8499,2.8456,2.84,2.8402,2.8404,2.8484,2.8493,2.85,0,0,0,0,0,2.9024,2.9021,2.8991,2.8974,2.8868,2.8812,2.8798,2.8732,2.8708,2.8704,2.8648,2.8603,2.8507,2.85,2.8485,2.8493,2.8399,2.8401,2.8404,2.8481,2.8491,2.85,0,0,0,0,0,0,2.9116,2.9008,2.8974,2.8941,2.8887,2.8796,2.8788,2.8744,2.8696,2.8691,2.8612,2.8594,2.8567,2.8526,2.852,2.8483,2.8448,2.8447,2.8511,2.852,2.8528,2.8539,2.8453,0,0,0,0,0,2.9132,2.9094,2.9002,2.8983,2.8957,2.8878,2.8851,2.8804,2.8745,2.8722,2.8663,2.861,2.8567,2.8541,2.8497,2.8478,2.846,2.8476,2.8484,2.8491,2.8492,2.8481,2.8488,2.8413,2.8413,2.8413,0,0,2.9166,2.9102,2.9083,2.9,2.8952,2.8916,2.8859,2.8823,2.8797,2.8717,2.8679,2.8635,2.857,2.8543,2.8528,2.8508,2.8509,2.8494,2.85,2.8497,2.8485,2.8492,2.8498,2.8415,2.8414,2.8414,0,0,2.9209,2.9156,2.9135,2.9088,2.9016,2.8964,2.8959,2.8875,2.8842,2.8803,2.8743,2.8712,2.864,2.8597,2.8566,2.8595,2.8553,2.8584,2.8625,2.8616,2.8621,2.8626,2.8639,2.8645,2.8585,2.8585,2.8585,0,2.926,2.9202,2.913,2.9098,2.9064,2.899,2.8969,2.8928,2.8847,2.8826,2.8804,2.8714,2.8665,2.8628,2.8636,2.8612,2.8606,2.8593,2.8626,2.863,2.8634,2.8645,2.865,2.8589,2.8589,2.8588,2.8588,0,2.927,2.9231,2.9223,2.9145,2.9111,2.9085,2.9011,2.8985,2.8943,2.8894,2.8857,2.8795,2.8739,2.8726,2.8684,2.8684,2.8674,2.8641,2.8603,2.8647,2.8656,2.866,2.8595,2.8594,2.8593,2.8592,0,0,2.9366,2.9249,2.9248,2.9213,2.9129,2.9099,2.9071,2.9014,2.8995,2.8942,2.8919,2.8861,2.883,2.8794,2.8747,2.8739,2.877,2.8706,2.8704,2.8722,2.8769,2.8796,2.8802,2.8741,2.8741,2.8742,2.8775,0,2.9398,2.9342,2.9277,2.9244,2.9209,2.9139,2.9116,2.9063,2.9017,2.8983,2.8932,2.8894,2.8854,2.8833,2.8821,2.8769,2.8779,2.8765,2.8721,2.872,2.874,2.8807,2.8834,2.8869,2.8778,2.8779,2.8779,0,2.9427,2.9377,2.9341,2.9262,2.9245,2.9224,2.9169,2.9136,2.9077,2.9044,2.9006,2.8955,2.8926,2.8892,2.8852,2.8844,2.8823,2.8795,2.8795,2.8789,2.8753,2.8805,2.8878,2.8884,2.8784,2.8784,2.8783,0,2.9503,2.9427,2.9395,2.9367,2.9274,2.9262,2.9224,2.9163,2.9134,2.9086,2.9067,2.9018,2.8991,2.8955,2.8894,2.8875,2.8861,2.8822,2.8836,2.8837,2.8836,2.8838,2.8909,2.8821,2.882,2.882,2.882,0,2.9546,2.9527,2.9429,2.941,2.9388,2.9315,2.9296,2.9251,2.9198,2.9171,2.9108,2.9085,2.9005,2.8973,2.8926,2.8901,2.8889,2.8864,2.8852,2.887,2.8874,2.8856,2.8852,2.8822,2.8821,2.8821,2.8821,0,2.9627,2.956,2.9522,2.9438,2.9416,2.9404,2.9333,2.9314,2.9264,2.9232,2.922,2.9144,2.9103,2.9039,2.898,2.8948,2.8933,2.8911,2.8952,2.8945,2.8963,2.8963,2.9027,2.9033,2.894,2.8941,2.8941,0,2.9659,2.9643,2.9557,2.9534,2.9497,2.9461,2.9431,2.936,2.9332,2.9264,2.9254,2.9208,2.9168,2.9108,2.9049,2.9004,2.8982,2.9008,2.8975,2.8995,2.8985,2.8987,2.8987,2.9016,2.9017,2.9018,2.9019,0,2.9724,2.9692,2.9651,2.9599,2.9565,2.9521,2.9474,2.9459,2.9378,2.9351,2.9308,2.9277,2.9217,2.9174,2.9121,2.9084,2.904,2.903,2.9031,2.905,2.9076,2.9064,2.8975,2.9029,2.9028,2.9027,2.9027,2.9026,2.9783,2.9766,2.9704,2.9661,2.9618,2.9576,2.9554,2.9503,2.9465,2.941,2.937,2.9331,2.9275,2.92,2.9165,2.9136,2.9115,2.9117,2.9117,2.9119,2.9127,2.908,2.9126,2.9125,2.9125,2.9125,2.9124,0,2.9846,2.9803,2.9764,2.97,2.9667,2.9626,2.9573,2.9549,2.9514,2.9465,2.9427,2.938,2.9338,2.9277,2.9231,2.922,2.9198,2.921,2.9211,2.9204,2.9146,2.9151,2.9228,2.9228,2.9228,2.9228,2.9228,2.9228,2.9875,2.9846,2.9807,2.9757,2.9714,2.9674,2.9648,2.961,2.957,2.952,2.9485,2.9444,2.9391,2.9341,2.9303,2.9286,2.9273,2.9292,2.9269,2.9217,2.9207,2.9198,2.9202,2.9289,2.9289,2.9329,2.933,2.933]},{"header":{"parameterUnit":"m.s-1","parameterCategory":1,"la1":30.2991,"la2":30.254,"lo1":-89.0895,"lo2":-89.0444,"dy":0.0017,"dx":0.0017,"nx":28,"ny":28,"refTime":"2026-01-02T03:00:00:Z","depth":0,"parameterNumber":3,"parameterNumberName":"V-component_of_WINDS"},"data":[0,0,0,0,0,0,0,0,0,0,0,0,0,0,0,0,0,0,0,0,0,0,0,0,0,0,0,0,0,0,0,0,0,0,0,0,0,0,0,0,0,0,0,0,0,0,0,0,0,0,0,0,0,0,0,0,0,0,0.8792,0.8794,0,0.8904,0.8905,0.8906,0.8933,0.8933,0.8932,0.8931,0.9043,0.9047,0.905,0,0,0,0,0,0,0,0,0,0,0,0,0,0.8599,0.8603,0.8792,0.8794,0.8795,0.8904,0.8905,0.8907,0.8934,0.8933,0.8932,0.8931,0.9042,0.9046,0.9051,0,0,0,0,0,0,0,0,0,0,0,0,0,0.8694,0.8604,0.8792,0.8822,0.8825,0.8903,0.8905,0.8907,0.8934,0.8933,0.8932,0.893,0.9041,0.9046,0.9051,0.9107,0,0,0.9068,0.9071,0,0,0,0,0,0,0,0,0.8689,0.8701,0.8816,0.882,0.8824,0.8904,0.8878,0.8974,0.8934,0.8892,0.8931,0.893,0.8998,0.9007,0.903,0.9112,0.9117,0.9069,0.9072,0.9074,0.9076,0,0,0,0,0,0,0,0.8682,0.8696,0.8836,0.8817,0.8822,0.8828,0.884,0.8896,0.895,0.8896,0.8898,0.8911,0.9,0.9024,0.9033,0.9119,0.9069,0.9073,0.9077,0.9079,0.925,0.9251,0,0,0,0,0,0,0.8671,0.8691,0.8833,0.884,0.8752,0.8832,0.8846,0.8879,0.8949,0.8959,0.8912,0.8912,0.9016,0.9026,0.9037,0.9105,0.9074,0.9079,0.9083,0.9248,0.925,0.9251,0,0,0,0,0,0,0.8666,0.8683,0.8828,0.8766,0.8785,0.8837,0.8874,0.8882,0.8907,0.8961,0.8971,0.8928,0.9015,0.9029,0.9089,0.9109,0.9082,0.9087,0.9247,0.9249,0.9251,0.9242,0,0,0,0,0,0,0.8661,0.8681,0.8704,0.8766,0.8788,0.888,0.8875,0.8885,0.8916,0.8918,0.8979,0.8988,0.9015,0.9081,0.9094,0.9116,0.9091,0.9245,0.9248,0.925,0.924,0.9243,0.9245,0,0,0,0,0,0.8654,0.8697,0.8705,0.8722,0.8818,0.8881,0.8893,0.8925,0.8918,0.894,0.8975,0.8986,0.9105,0.9086,0.9102,0.9126,0.9244,0.9247,0.925,0.9239,0.9243,0.9245,0,0,0,0,0,0,0.8636,0.8706,0.8716,0.8781,0.8825,0.8885,0.8915,0.8928,0.8974,0.8973,0.9009,0.9023,0.908,0.9109,0.9088,0.9182,0.9174,0.918,0.9161,0.9164,0.9167,0.9158,0.9096,0,0,0,0,0,0.864,0.8687,0.8745,0.8797,0.8818,0.8862,0.8891,0.8912,0.8958,0.8977,0.9016,0.906,0.9107,0.9138,0.9184,0.9245,0.9257,0.9269,0.9271,0.9273,0.9277,0.9309,0.9314,0.926,0.926,0.926,0,0,0.8648,0.8692,0.8719,0.8794,0.8831,0.8876,0.8878,0.8927,0.8961,0.8984,0.9043,0.9073,0.9124,0.9184,0.9213,0.921,0.9295,0.9276,0.9277,0.9281,0.9312,0.9317,0.9322,0.9262,0.9262,0.9262,0,0,0.8686,0.8725,0.8771,0.8807,0.8862,0.8891,0.8902,0.8961,0.8982,0.9041,0.9059,0.9099,0.918,0.9215,0.9244,0.9292,0.9303,0.9306,0.9319,0.9349,0.9353,0.9357,0.9373,0.9378,0.9311,0.9311,0.9311,0,0.8689,0.876,0.8793,0.8841,0.8872,0.8895,0.8941,0.8975,0.9042,0.9062,0.9059,0.9159,0.9196,0.9263,0.9274,0.9297,0.9309,0.9299,0.935,0.9354,0.9359,0.9374,0.9379,0.9311,0.9311,0.9311,0.9311,0,0.876,0.8808,0.8839,0.8903,0.8938,0.8984,0.9023,0.9054,0.9071,0.9099,0.9158,0.9203,0.9257,0.9275,0.9292,0.9344,0.934,0.9343,0.9336,0.9363,0.9378,0.9384,0.9311,0.9311,0.9311,0.9311,0,0,0.8791,0.8871,0.8882,0.891,0.8971,0.9009,0.9055,0.9109,0.9134,0.9179,0.9217,0.9284,0.9287,0.9319,0.934,0.9367,0.9399,0.9366,0.9368,0.9369,0.9457,0.9453,0.946,0.9407,0.9408,0.941,0.9452,0,0.8835,0.892,0.895,0.9019,0.9063,0.9084,0.9125,0.9166,0.9193,0.9233,0.9264,0.931,0.931,0.9329,0.9357,0.939,0.9417,0.9387,0.9442,0.9443,0.9427,0.9468,0.9465,0.9503,0.9458,0.9459,0.946,0,0.8898,0.8943,0.9017,0.907,0.909,0.9126,0.9176,0.9215,0.9261,0.9279,0.9314,0.9332,0.938,0.937,0.9435,0.9414,0.9438,0.9457,0.9459,0.9464,0.9452,0.9473,0.9516,0.9521,0.9469,0.9469,0.9468,0,0.891,0.899,0.9043,0.9067,0.9132,0.9156,0.9184,0.9229,0.9259,0.9302,0.9321,0.937,0.9396,0.9432,0.9463,0.9453,0.9524,0.9517,0.9539,0.9538,0.9552,0.9551,0.9598,0.957,0.957,0.9569,0.9569,0,0.8956,0.8999,0.905,0.9082,0.9131,0.9165,0.9212,0.9241,0.928,0.9318,0.934,0.9374,0.9413,0.9452,0.9476,0.9525,0.9537,0.9551,0.9557,0.9549,0.9547,0.9564,0.9562,0.9571,0.9571,0.957,0.957,0,0.8978,0.9014,0.9073,0.9129,0.9144,0.9177,0.9224,0.9256,0.9284,0.9331,0.9344,0.9388,0.9434,0.9469,0.9529,0.9545,0.9597,0.9603,0.9581,0.9584,0.9603,0.96,0.9662,0.9671,0.9638,0.9638,0.9638,0,0.9004,0.9038,0.9097,0.9124,0.9151,0.9195,0.9225,0.9258,0.9288,0.9342,0.9367,0.9415,0.9456,0.9529,0.9566,0.9612,0.9618,0.9637,0.9625,0.9615,0.9617,0.9614,0.9616,0.9638,0.9638,0.9639,0.9639,0,0.9045,0.9061,0.9104,0.9152,0.9187,0.9227,0.9267,0.9287,0.9328,0.936,0.9409,0.944,0.9501,0.9548,0.9597,0.9625,0.9638,0.9642,0.9649,0.9641,0.9626,0.9632,0.9584,0.9641,0.964,0.964,0.964,0.964,0.9069,0.9099,0.9145,0.9191,0.9225,0.9261,0.9293,0.9325,0.9366,0.9419,0.9436,0.9485,0.9528,0.9595,0.9623,0.9661,0.966,0.9671,0.9674,0.9675,0.9674,0.9621,0.967,0.967,0.967,0.967,0.967,0,0.911,0.914,0.9183,0.9237,0.9273,0.9283,0.9327,0.9356,0.94,0.9439,0.9478,0.9532,0.9578,0.9617,0.9663,0.9686,0.9693,0.9697,0.9695,0.9701,0.9673,0.9661,0.969,0.969,0.969,0.969,0.969,0.969,0.9136,0.9187,0.9207,0.9274,0.9304,0.9353,0.9377,0.941,0.9441,0.9501,0.9539,0.9564,0.9603,0.9652,0.9693,0.9704,0.9719,0.9721,0.9732,0.9705,0.9703,0.9701,0.969,0.9724,0.9724,0.9757,0.9757,0.9758]}]]